Simultaneous Nadir Overpasses (SNOs) Predictions

Prediction of SNOs between GOES-17 and TERRA Satellite Orbit:

Table of predicted SNOs for the next 14.0 days since TLE Epoch: 9/17/2022
Index Date Time (GOES-17) GOES-17 Lat,Lon TERRA Lat,Lon Distance(km) Time Diff (sec)
1 09/18/2022 07:16:32 0.06,-137.28 0.55,-135.02 258.03 80
2 09/18/2022 19:35:06 -0.06,-137.29 0.57,-140.17 328.23 80
3 09/20/2022 19:25:30 -0.05,-137.26 -0.08,-137.22 5.99 80
4 09/22/2022 19:13:13 -0.05,-137.24 -0.67,-134.25 339.47 80
5 09/23/2022 07:31:56 0.05,-137.22 -0.43,-139.44 252.55 80
6 09/25/2022 07:22:19 0.05,-137.19 0.18,-136.48 80.69 80
7 09/27/2022 07:10:02 0.05,-137.15 0.79,-133.51 413.34 80
8 09/27/2022 19:28:37 -0.05,-137.15 0.26,-138.68 173.54 80
9 09/29/2022 19:19:00 -0.05,-137.10 -0.36,-135.72 158.12 80
10 09/30/2022 07:37:42 0.04,-137.08 -0.78,-140.90 434.41 80
